Vendredi 01 mars 2024   -   semaine 09                    on fête: Aubin                    soleil  (+3 mn) lever du soleil 07:25:00 coucher du soleil 18:33:00                    lune Lune gibbeuse décroissante
Sélection

Sélection d'un SYNOP

   Synop:       

  Période à consulter:

Actuelle
Archive     

Relevé

Dernier relevé du SYNOP pour la période choisie

Conditions météo à la station de Vichy/Charmeil (4610N 00324E)    altitude 251m

Date du relevé01/03/2024 à 20:00
Base des nuages1000 à 1500m
Visibilité20km
Nébulosité7/8 (nuages fragmentés)
Vent9 km/h S
Température10.4 C
Température mini / 12h0.0 C
Humidité64.1 %
Point de rosée3.9 C
Pression absolue975.2 hPa
Pression relative1004.9 hPa
Variation pression-0.7 hPa stationnaire ou en hausse puis en baisse, puis en baisse plus rapide

24h

Historique de la période choisie

Certaines stations ne diffusent pas en continu, d'où l'absence possible de données à certaines heures. Le tableau ci-dessous récapitule l'historique des relevés de la station de Vichy/Charmeil.

Date - Heure Base des nuages Visibilité Nébulosité Vent - Secteur Température Humidité Point rosée Pression / Géopotentiel Précipitations Temps
01/03 20:00 1000 à 1500m 20km 7/8 9 km/h S 10.4 C 64.1 % 3.9 C 1004.9 hPa
01/03 19:00 1000 à 1500m 20km 8/8 9 km/h S 11.0 C 61.1 % 3.8 C 1005.2 hPa 0 mm/12h
01/03 18:00 1000 à 1500m 20km 8/8 7 km/h S 11.7 C 58.8 % 3.9 C 1005.3 hPa
01/03 17:00 1000 à 1500m 20km 8/8 6 km/h SO 12.0 C 58.0 % 4.0 C 1005.5 hPa
01/03 16:00 1000 à 1500m 20km 8/8 6 km/h SSO 12.4 C 53.8 % 3.3 C 1005.9 hPa
01/03 15:00 1500 à 2000m 20km 1/8 11 km/h S 12.9 C 49.9 % 2.7 C 1006.2 hPa
01/03 14:00 1000 à 1500m 20km 8/8 11 km/h SSO 11.6 C 55.1 % 2.9 C 1007.7 hPa
01/03 13:00 1000 à 1500m 20km 8/8 9 km/h SSO 11.1 C 55.0 % 2.4 C 1008.7 hPa 0 mm/6h
01/03 12:00 1000 à 1500m 20km 8/8 11 km/h S 10.7 C 54.1 % 1.8 C 1009.5 hPa
01/03 11:00 1000 à 1500m 20km 1/8 7 km/h SO 9.4 C 56.1 % 1.1 C 1010.6 hPa
01/03 10:00 plus de 2500m 20km 7 km/h S 8.7 C 64.1 % 2.3 C 1011.3 hPa
01/03 09:00 1000 à 1500m 20km 1/8 4 km/h S 5.3 C 85.7 % 3.1 C 1012.2 hPa
01/03 08:00 plus de 2500m 20km 2 km/h S 2.8 C 97.2 % 2.4 C 1012.6 hPa
01/03 07:00 600 à 1000m 20km 2/8 2 km/h SSO 3.8 C 95.2 % 3.1 C 1012.1 hPa 3 mm/12h
01/03 06:00 1000 à 1500m 20km 7/8 4 km/h SSO 5.4 C 93.9 % 4.5 C 1011.8 hPa
01/03 05:00 600 à 1000m 20km 8/8 2 km/h S 5.3 C 93.3 % 4.3 C 1011.8 hPa
01/03 04:00 1000 à 1500m 20km 8/8 4 km/h NO 6.4 C 85.8 % 4.2 C 1011.6 hPa
01/03 03:00 600 à 1000m 20km 8/8 6 km/h ONO 7.2 C 83.0 % 4.5 C 1011.4 hPa
01/03 02:00 600 à 1000m 20km 8/8 2 km/h O 7.6 C 85.9 % 5.4 C 1010.9 hPa
01/03 01:00 600 à 1000m 17km 8/8 2 km/h SO 7.6 C 94.0 % 6.7 C 1010.5 hPa 3 mm/6h
01/03 00:00 600 à 1000m 14km 8/8 2 km/h OSO 7.8 C 92.8 % 6.7 C 1010.2 hPa
29/02 23:00 1000 à 1500m 13km 8/8 4 km/h S 8.5 C 86.0 % 6.3 C 1009.4 hPa
29/02 22:00 1000 à 1500m 20km 8/8 2 km/h SSO 9.0 C 80.9 % 5.9 C 1009.2 hPa
29/02 21:00 1500 à 2000m 20km 8/8 2 km/h SSO 9.7 C 75.1 % 5.5 C 1008.9 hPa

Source: ogimet